Location: Jackson Park
(37.2862°N, 79.9123°W)
Time: 10:28:17
(UTC+00:00)

SR - Pass Details

Date: 23 May 2026
Orbit: 567 x 853 km, 66.7° (Epoch: 10 June)

Event Time Altitude Azimuth Distance (km) Brightness Sun altitude
Rises 20:59:21 0° 312° (NW) 3,419 ? 39.3°
Reaches altitude 10° 21:02:55 10° 290° (WNW) 2,481 ? 38.6°
Maximum altitude 21:06:01 15° 257° (WSW) 2,134 ? 38.0°
Drops below altitude 10° 21:09:06 10° 224° (SW) 2,445 ? 37.4°
Sets 21:12:35 0° 202° (SSW) 3,339 ? 36.7°
